When you browse on this site, cookies collect data to enhance your experience and personalize the content and advertising you see.
Visit our Privacy Policy to learn more. By continuing to use the site, you agree to this use of cookies and data.
  • In Hungary
  • List of Countries
  • For 7 days
  • Water Temperature
  • Satellite Maps
  • Weather Map
  • News
  • Weather Widgets
  • user-avatar
    Login

    Hourly Weather Huangqiao

    Today, 18 December, Tuesday

    Time Temperature Precipitation Wind Pressure Humidity
    00:00 +9°C° 0 mm 0 mps 741 mmHg 43%
    01:00 +8°C° 0 mm 0 mps 741 mmHg 42%
    02:00 +8°C° 0 mm 0 mps 740 mmHg 41%
    03:00 +8°C° 0 mm 0 mps 740 mmHg 41%
    04:00 +8°C° 0 mm 0 mps 740 mmHg 40%
    05:00 +8°C° 0 mm 0 mps 740 mmHg 40%
    06:00 +8°C° 0 mm 0 mps 740 mmHg 41%
    07:00 +9°C° 0 mm 0 mps 741 mmHg 39%
    08:00 +11°C° 0 mm 0 mps 740 mmHg 36%
    09:00 +13°C° 0 mm 0 mps 740 mmHg 32%
    10:00 +16°C° 0 mm 0 mps 740 mmHg 29%
    11:00 +19°C° 0 mm 1 mps 739 mmHg 27%
    12:00 +20°C° 0 mm 1 mps 738 mmHg 26%
    13:00 +21°C° 0 mm 1 mps 737 mmHg 25%
    14:00 +20°C° 0 mm 1 mps 737 mmHg 29%
    15:00 +19°C° 0 mm 1 mps 737 mmHg 33%
    16:00 +19°C° 0 mm 1 mps 736 mmHg 37%
    17:00 +16°C° 0 mm 1 mps 736 mmHg 39%
    18:00 +15°C° 0 mm 1 mps 736 mmHg 42%
    19:00 +13°C° 0 mm 1 mps 736 mmHg 45%
    20:00 +13°C° 0 mm 1 mps 737 mmHg 45%
    21:00 +13°C° 0 mm 1 mps 737 mmHg 46%
    22:00 +12°C° 0 mm 1 mps 737 mmHg 47%
    23:00 +12°C° 0 mm 1 mps 737 mmHg 47%

    Tomorrow, 19 December, Wednesday

    Time Temperature Precipitation Wind Pressure Humidity
    00:00 +12°C° 0 mm 1 mps 737 mmHg 48%
    01:00 +12°C° 0 mm 1 mps 736 mmHg 48%
    02:00 +12°C° 0 mm 1 mps 736 mmHg 49%
    03:00 +12°C° 0 mm 1 mps 736 mmHg 50%
    04:00 +11°C° 0 mm 1 mps 735 mmHg 51%
    05:00 +12°C° 0 mm 1 mps 736 mmHg 52%
    06:00 +12°C° 0 mm 1 mps 736 mmHg 53%
    07:00 +12°C° 0 mm 1 mps 736 mmHg 54%
    08:00 +14°C° 0 mm 1 mps 736 mmHg 51%
    09:00 +16°C° 0 mm 1 mps 736 mmHg 47%
    10:00 +20°C° 0 mm 1 mps 737 mmHg 44%
    11:00 +20°C° 0 mm 1 mps 736 mmHg 47%
    12:00 +21°C° 0 mm 1 mps 735 mmHg 50%
    13:00 +21°C° 0 mm 1 mps 735 mmHg 53%
    14:00 +20°C° 0 mm 1 mps 734 mmHg 57%
    15:00 +19°C° 0 mm 1 mps 734 mmHg 61%
    16:00 +19°C° 0 mm 1 mps 734 mmHg 65%
    17:00 +18°C° 0.1 mm 1 mps 735 mmHg 68%
    18:00 +18°C° 0.1 mm 1 mps 735 mmHg 71%
    19:00 +16°C° 0.1 mm 1 mps 735 mmHg 74%
    20:00 +16°C° 0.8 mm 1 mps 735 mmHg 78%
    21:00 +15°C° 0.8 mm 1 mps 736 mmHg 82%
    22:00 +15°C° 0.8 mm 1 mps 736 mmHg 86%
    23:00 +15°C° 0.6 mm 1 mps 736 mmHg 87%

    Day after tomorrow, 20 December, Thursday

    Time Temperature Precipitation Wind Pressure Humidity
    00:00 +14°C° 0.6 mm 1 mps 736 mmHg 89%
    01:00 +14°C° 0.6 mm 1 mps 736 mmHg 91%
    02:00 +14°C° 0.6 mm 1 mps 736 mmHg 91%
    03:00 +13°C° 0.6 mm 1 mps 735 mmHg 92%
    04:00 +13°C° 0.6 mm 1 mps 735 mmHg 93%
    05:00 +13°C° 0.5 mm 1 mps 736 mmHg 93%
    06:00 +13°C° 0.5 mm 1 mps 736 mmHg 92%
    07:00 +13°C° 0.5 mm 1 mps 736 mmHg 92%
    08:00 +13°C° 0.1 mm 1 mps 737 mmHg 91%
    09:00 +13°C° 0.1 mm 1 mps 737 mmHg 90%
    10:00 +13°C° 0.1 mm 1 mps 737 mmHg 88%
    11:00 +14°C° 0 mm 1 mps 736 mmHg 86%
    12:00 +15°C° 0 mm 1 mps 736 mmHg 83%
    13:00 +15°C° 0 mm 1 mps 735 mmHg 81%
    14:00 +15°C° 0 mm 1 mps 734 mmHg 82%
    15:00 +15°C° 0 mm 1 mps 734 mmHg 83%
    16:00 +15°C° 0 mm 1 mps 734 mmHg 84%
    17:00 +15°C° 0 mm 1 mps 734 mmHg 86%
    18:00 +15°C° 0 mm 1 mps 734 mmHg 88%
    19:00 +14°C° 0 mm 1 mps 735 mmHg 90%
    20:00 +14°C° 0 mm 1 mps 735 mmHg 91%
    21:00 +14°C° 0 mm 1 mps 735 mmHg 91%
    22:00 +14°C° 0 mm 1 mps 735 mmHg 92%
    23:00 +14°C° 0 mm 1 mps 735 mmHg 93%

    21 December, Friday

    Time Temperature Precipitation Wind Pressure Humidity
    00:00 +14°C° 0 mm 1 mps 735 mmHg 93%
    01:00 +13°C° 0 mm 1 mps 735 mmHg 94%
    02:00 +13°C° 0.1 mm 1 mps 735 mmHg 94%
    03:00 +13°C° 0.1 mm 1 mps 735 mmHg 94%
    04:00 +13°C° 0.1 mm 1 mps 735 mmHg 94%
    05:00 +13°C° 0.1 mm 1 mps 736 mmHg 94%
    06:00 +13°C° 0.1 mm 1 mps 736 mmHg 94%
    07:00 +13°C° 0.1 mm 1 mps 737 mmHg 94%
    08:00 +14°C° 0.2 mm 1 mps 737 mmHg 93%
    09:00 +14°C° 0.2 mm 2 mps 737 mmHg 92%
    10:00 +14°C° 0.2 mm 2 mps 738 mmHg 91%
    11:00 +14°C° 0.3 mm 1 mps 737 mmHg 90%
    12:00 +15°C° 0.3 mm 1 mps 736 mmHg 90%
    13:00 +15°C° 0.3 mm 1 mps 736 mmHg 89%
    14:00 +15°C° 0.2 mm 1 mps 736 mmHg 90%
    15:00 +15°C° 0.2 mm 2 mps 735 mmHg 91%
    16:00 +15°C° 0.2 mm 2 mps 735 mmHg 91%
    17:00 +14°C° 0.2 mm 2 mps 736 mmHg 92%
    18:00 +14°C° 0.2 mm 2 mps 736 mmHg 93%
    19:00 +14°C° 0.2 mm 2 mps 737 mmHg 94%
    20:00 +14°C° 0.1 mm 2 mps 737 mmHg 94%
    21:00 +14°C° 0.1 mm 1 mps 737 mmHg 94%
    22:00 +13°C° 0.1 mm 1 mps 737 mmHg 94%
    23:00 +13°C° 0.1 mm 1 mps 737 mmHg 94%

    22 December, Saturday

    Time Temperature Precipitation Wind Pressure Humidity
    00:00 +13°C° 0.1 mm 1 mps 737 mmHg 94%
    01:00 +13°C° 0.1 mm 1 mps 737 mmHg 94%
    02:00 +13°C° 0.3 mm 1 mps 737 mmHg 94%
    03:00 +13°C° 0.3 mm 1 mps 737 mmHg 94%
    04:00 +13°C° 0.3 mm 1 mps 737 mmHg 94%
    05:00 +13°C° 0.2 mm 1 mps 737 mmHg 94%
    06:00 +13°C° 0.2 mm 1 mps 738 mmHg 94%
    07:00 +13°C° 0.2 mm 1 mps 738 mmHg 94%
    08:00 +13°C° 0.2 mm 1 mps 739 mmHg 94%
    09:00 +13°C° 0.2 mm 1 mps 739 mmHg 93%
    10:00 +14°C° 0.2 mm 2 mps 739 mmHg 92%
    11:00 +14°C° 0.1 mm 2 mps 739 mmHg 92%
    12:00 +14°C° 0.1 mm 2 mps 739 mmHg 91%
    13:00 +14°C° 0.1 mm 2 mps 738 mmHg 91%
    14:00 +14°C° 0.1 mm 2 mps 738 mmHg 91%
    15:00 +14°C° 0.1 mm 2 mps 738 mmHg 91%
    16:00 +14°C° 0.1 mm 2 mps 738 mmHg 90%
    17:00 +13°C° 0.1 mm 2 mps 739 mmHg 91%
    18:00 +13°C° 0.1 mm 2 mps 740 mmHg 91%
    19:00 +13°C° 0.1 mm 2 mps 740 mmHg 92%
    20:00 +13°C° 0.1 mm 2 mps 741 mmHg 92%
    21:00 +12°C° 0.1 mm 2 mps 741 mmHg 92%
    22:00 +12°C° 0.1 mm 2 mps 742 mmHg 92%
    23:00 +12°C° 0.1 mm 2 mps 741 mmHg 92%

    23 December, Sunday

    Time Temperature Precipitation Wind Pressure Humidity
    00:00 +12°C° 0.1 mm 2 mps 741 mmHg 92%
    01:00 +12°C° 0.1 mm 2 mps 741 mmHg 92%
    02:00 +12°C° 0.5 mm 2 mps 741 mmHg 92%
    03:00 +10°C° 0.5 mm 2 mps 741 mmHg 92%
    04:00 +10°C° 0.5 mm 2 mps 741 mmHg 92%
    05:00 +10°C° 0.6 mm 2 mps 741 mmHg 92%
    06:00 +10°C° 0.6 mm 2 mps 742 mmHg 91%
    07:00 +10°C° 0.6 mm 2 mps 742 mmHg 91%
    08:00 +10°C° 0.8 mm 2 mps 742 mmHg 91%
    09:00 +11°C° 0.8 mm 1 mps 742 mmHg 91%
    10:00 +11°C° 0.8 mm 1 mps 743 mmHg 90%
    11:00 +11°C° 0.2 mm 1 mps 742 mmHg 88%
    12:00 +12°C° 0.2 mm 1 mps 741 mmHg 86%
    13:00 +12°C° 0.2 mm 1 mps 741 mmHg 84%
    14:00 +12°C° 0.3 mm 1 mps 741 mmHg 86%
    15:00 +12°C° 0.3 mm 1 mps 740 mmHg 88%
    16:00 +10°C° 0.3 mm 2 mps 740 mmHg 90%
    17:00 +11°C° 0.1 mm 1 mps 741 mmHg 90%
    18:00 +11°C° 0.1 mm 1 mps 741 mmHg 91%
    19:00 +11°C° 0.1 mm 1 mps 741 mmHg 91%
    20:00 +11°C° 0.1 mm 1 mps 741 mmHg 92%
    21:00 +11°C° 0.1 mm 1 mps 741 mmHg 92%
    22:00 +11°C° 0.1 mm 1 mps 741 mmHg 92%
    23:00 +11°C° 0.3 mm 1 mps 740 mmHg 92%
    Show more